| time (UTC) | temp F | wind direction | speed MPH | gust MPH | rain 1hr in | rain 24hr in | rain mn in | humidity % | barometer mb |
| 20260505041003 | 74 | 180 | 16.0 | 20.0 | 0.00 | 0.00 | 0.00 | 65 | 1045.0 |
| 20260505035503 | 75 | 188 | 9.0 | 19.0 | 0.00 | 0.00 | 0.00 | 64 | 1045.0 |
| 20260505032502 | 75 | 204 | 13.0 | 27.0 | 0.00 | 0.00 | 0.00 | 63 | 1044.7 |
| 20260505031003 | 76 | 192 | 14.0 | 20.0 | 0.00 | 0.00 | 0.00 | 63 | 1044.7 |
| 20260505025503 | 76 | 162 | 15.0 | 24.0 | 0.00 | 0.00 | 0.00 | 62 | 1044.4 |
| 20260505024503 | 76 | 167 | 15.0 | 22.0 | 0.00 | 0.00 | 0.00 | 61 | 1044.7 |
| 20260505023003 | 76 | 179 | 14.0 | 17.0 | 0.00 | 0.00 | 0.00 | 61 | 1044.7 |
| 20260505021503 | 77 | 179 | 10.0 | 18.0 | 0.00 | 0.00 | 0.00 | 60 | 1044.4 |
| 20260505020003 | 77 | 188 | 23.0 | 25.0 | 0.00 | 0.00 | 0.00 | 59 | 1044.4 |
| 20260505014503 | 77 | 220 | 9.0 | 19.0 | 0.00 | 0.00 | 0.00 | 59 | 1044.4 |
| 20260505013003 | 78 | 201 | 9.0 | 22.0 | 0.00 | 0.00 | 0.00 | 57 | 1044.4 |
| 20260505011503 | 79 | 171 | 16.0 | 22.0 | 0.00 | 0.00 | 0.00 | 56 | 1044.7 |
| 20260505010003 | 79 | 185 | 17.0 | 18.0 | 0.00 | 0.00 | 0.00 | 55 | 1044.7 |
| 20260505004503 | 80 | 204 | 17.0 | 23.0 | 0.00 | 0.00 | 0.00 | 54 | 1044.7 |
| 20260505003003 | 80 | 159 | 16.0 | 22.0 | 0.00 | 0.00 | 0.00 | 53 | 1044.7 |
| 20260505001503 | 80 | 190 | 18.0 | 29.0 | 0.00 | 0.00 | 0.00 | 52 | 1044.7 |
| 20260504234503 | 81 | 152 | 19.0 | 24.0 | 0.00 | 0.00 | 0.00 | 50 | 1045.0 |
| 20260504233004 | 82 | 177 | 12.0 | 22.0 | 0.00 | 0.00 | 0.00 | 50 | 1045.0 |
| 20260504231503 | 81 | 194 | 20.0 | 22.0 | 0.00 | 0.00 | 0.00 | 50 | 1045.7 |
| 20260504230003 | 82 | 196 | 17.0 | 25.0 | 0.00 | 0.00 | 0.00 | 50 | 1045.4 |
| 20260504223003 | 81 | 180 | 14.0 | 18.0 | 0.00 | 0.00 | 0.00 | 49 | 1045.7 |
| 20260504221503 | 81 | 175 | 10.0 | 23.0 | 0.00 | 0.00 | 0.00 | 49 | 1046.4 |
| 20260504220003 | 82 | 188 | 12.0 | 20.0 | 0.00 | 0.00 | 0.00 | 48 | 1046.4 |
| 20260504214503 | 81 | 212 | 18.0 | 20.0 | 0.00 | 0.00 | 0.00 | 48 | 1046.7 |
| 20260504213003 | 81 | 203 | 13.0 | 20.0 | 0.00 | 0.00 | 0.00 | 48 | 1047.1 |
| 20260504211503 | 81 | 178 | 22.0 | 25.0 | 0.00 | 0.00 | 0.00 | 46 | 1047.4 |
| 20260504210003 | 81 | 205 | 18.0 | 22.0 | 0.00 | 0.00 | 0.00 | 46 | 1047.4 |
| 20260504204503 | 81 | 184 | 20.0 | 21.0 | 0.00 | 0.00 | 0.00 | 45 | 1047.7 |
| 20260504203003 | 82 | 188 | 19.0 | 26.0 | 0.00 | 0.00 | 0.00 | 43 | 1047.7 |
| 20260504201503 | 82 | 210 | 17.0 | 27.0 | 0.00 | 0.00 | 0.00 | 43 | 1048.1 |
| 20260504200003 | 81 | 159 | 16.0 | 23.0 | 0.00 | 0.00 | 0.00 | 44 | 1048.4 |
| 20260504194503 | 81 | 188 | 17.0 | 24.0 | 0.00 | 0.00 | 0.00 | 42 | 1048.8 |
| 20260504193003 | 82 | 203 | 15.0 | 19.0 | 0.00 | 0.00 | 0.00 | 42 | 1049.1 |
| 20260504191503 | 81 | 206 | 13.0 | 23.0 | 0.00 | 0.00 | 0.00 | 44 | 1049.1 |
| 20260504190003 | 80 | 206 | 14.0 | 22.0 | 0.00 | 0.00 | 0.00 | 44 | 1049.1 |
| 20260504184503 | 80 | 191 | 16.0 | 17.0 | 0.00 | 0.00 | 0.00 | 43 | 1049.4 |
| 20260504183004 | 79 | 188 | 19.0 | 21.0 | 0.00 | 0.00 | 0.00 | 45 | 1049.8 |
| 20260504181503 | 79 | 207 | 20.0 | 24.0 | 0.00 | 0.00 | 0.00 | 43 | 1049.8 |
| 20260504180003 | 79 | 172 | 21.0 | 22.0 | 0.00 | 0.00 | 0.00 | 43 | 1050.5 |
| 20260504174503 | 79 | 204 | 14.0 | 23.0 | 0.00 | 0.00 | 0.00 | 43 | 1050.5 |
| 20260504171503 | 78 | 222 | 19.0 | 23.0 | 0.00 | 0.00 | 0.00 | 43 | 1050.5 |
| 20260504140502 | 68 | 219 | 19.0 | 21.0 | 0.00 | 0.00 | 0.00 | 50 | 1051.8 |
| 20260504130503 | 64 | 211 | 13.0 | 21.0 | 0.00 | 0.00 | 0.00 | 55 | 1051.8 |
| 20260504050005 | 70 | 197 | 12.0 | 17.0 | 0.00 | 0.00 | 0.00 | 39 | 1055.2 |
| 20260504044503 | 70 | 188 | 15.0 | 18.0 | 0.00 | 0.00 | 0.00 | 39 | 1055.2 |